Location: Unspecified
(50.7693°N, 0.0000°E)
Time: 17:46:11
(UTC+00:00)

SR - Pass Details

Date: 04 July 2019
Orbit: 580 x 876 km, 66.7° (Epoch: 17 July)

Event Time Altitude Azimuth Distance (km) Brightness Sun altitude
Rises 08:36:02 0° 323° (NW) 3,012 ? 41.2°
Reaches altitude 10° 08:38:17 10° 326° (NNW) 2,138 ? 41.6°
Maximum altitude 08:43:08 67° 50° (NE) 793 ? 42.3°
Drops below altitude 10° 08:48:25 10° 133° (SE) 2,323 ? 43.1°
Sets 08:50:56 0° 136° (SE) 3,294 ? 43.5°
